User: anonymous   Login
Location: Hancock Field Station
(44.9202°N, 120.4259°W)
Time: 03:19:24
(UTC-07:00)
Language:

Nadezhda 4 Rocket - Orbit

View from above orbital plane
View from above orbital plane
View from above satellite
View from above satellite

Ground track
Ground track

The orbit data is extracted from the following two-line orbital elements,

1 23180U 94041B   14294.63967300 -.00000008  00000-0 -23124-4 0  5493
2 23180 082.9430 292.4668 0030110 064.8473 074.8023 13.77848947 19389
Epoch (UTC): 21 October 2014 15:21:07
Eccentricity: 0.0030110
inclination: 82.9430°
perigee height: 949 km
apogee height: 993 km
right ascension of ascending node: 292.4668°
argument of perigee: 64.8473°
revolutions per day: 13.77848947
mean anomaly at epoch: 74.8023°
orbit number at epoch: 1938

The dashed part of the orbit path shows where the satellite is in the earth's shadow,  

DLR